Content
SEND FEEDBACK

Daily
Averages
Monthly
Summary
United States of America

MONROE, LOUISIANA


Home > North America > United States > Louisiana
Elevation: 75 feet     Latitude: 32 31N     Longitude: 092 03W

WEATHER
 
SELECT A DAY
Number of Records: 167,641;   Date Range: 1/1/95 - 8/12/14
 
SHARE

PRINT THIS DATA

[ ← Previous Day ]
WEATHER ALMANAC - FEBRUARY 13, 2013
[ Next Day → ]
[ °C ]   °F
Weather ElementAverageHighLow
Temperature37.6 °F53.1 °F (3:53 pm) (9:53 am)
Dewpoint32.7 °F44.1 °F (1:53 am) (7:00 pm)
Humidity80.4 %93 % (8:53 pm)55 % (3:53 pm)
Barometer30.02 in30.10 in (9:53 pm)29.89 in (1:53 am)
Wind Speed7.8 mph16.1 mph (7:53 am)
Wind Gust23 mph (6:00 am)
Weather ElementAverage
Visibility9.9 mi
Wind DirectionS (181.2 °)

Weather ElementTotal
Precipitation---
Heating Degree Days38.5 (Base 65)
Averaged from 33 records on February 13, 2013
WEATHER CONDITIONS BREAKOUT
WIND DIRECTION BREAKOUT
WEATHER BY HOUR - FEBRUARY 13, 2013
[ °C ]   °F
Local TimeTemperatureDewpointHumidityBarometerVisibilityWind DirectionWind SpeedGust SpeedPrecipitationEventsConditions
1:53 AM46.9 °F44.1 °F90 %29.89 in10.0 miWest (280°)9.2 mphOvercast
2:18 AM46.4 °F42.8 °F87 %29.91 in6.0 miWNW (290°)10.4 mph20.7 mph0.00 inRainLight Rain
2:35 AM46.4 °F42.8 °F87 %29.92 in10.0 miWest (270°)10.4 mph0.00 inOvercast
2:53 AM46.9 °F43.0 °F86 %29.92 in10.0 miWest (270°)9.2 mph0.00 inOvercast
3:42 AM46.4 °F42.8 °F87 %29.94 in10.0 miWest (270°)10.4 mph0.00 inOvercast
3:53 AM46.9 °F43.0 °F86 %29.94 in10.0 miWest (270°)9.2 mph0.00 inOvercast
4:03 AM46.4 °F42.8 °F87 %29.94 in10.0 miWest (260°)10.4 mphOvercast
4:53 AM46.9 °F41.0 °F80 %29.97 in10.0 miWNW (290°)11.5 mphOvercast
5:25 AM46.4 °F41.0 °F81 %29.97 in10.0 miWNW (290°)10.4 mphOvercast
5:53 AM46.9 °F39.9 °F77 %29.96 in10.0 miNW (310°)12.7 mphOvercast
6:00 AM46.4 °F39.2 °F76 %29.97 in10.0 miNW (310°)15.0 mph23.0 mphOvercast
6:41 AM44.6 °F39.2 °F81 %29.99 in10.0 miNW (310°)10.4 mphMostly Cloudy
6:53 AM45.0 °F39.9 °F82 %30.00 in10.0 miWNW (290°)6.9 mphMostly Cloudy
7:53 AM46.9 °F41.0 °F80 %30.02 in10.0 miNW (310°)16.1 mph19.6 mphMostly Cloudy
8:10 AM46.4 °F41.0 °F81 %30.03 in10.0 miNW (310°)10.4 mphOvercast
8:28 AM46.4 °F41.0 °F81 %30.05 in10.0 miWNW (300°)11.5 mphOvercast
8:53 AM46.0 °F39.9 °F79 %30.06 in10.0 miNW (310°)10.4 mphOvercast
9:53 AM0.0 °F0.0 °F30.08 inNorthOvercast
10:00 AM0.0 °F0.0 °F30.08 inNorth
10:53 AM0.0 °F0.0 °F30.08 inNorth
11:53 AM0.0 °F0.0 °F30.07 inNorth
12:53 PM0.0 °F0.0 °F30.06 inNorth
1:53 PM0.0 °F0.0 °F30.04 inNorth
2:53 PM52.0 °F37.0 °F57 %30.03 in10.0 miNNW (340°)10.4 mph
3:53 PM53.1 °F37.0 °F55 %30.04 in10.0 miNNW (330°)5.8 mphOvercast
4:53 PM52.0 °F37.0 °F57 %30.04 in10.0 miNorth (10°)5.8 mphPartly Cloudy
5:53 PM48.9 °F37.9 °F66 %30.05 in10.0 miNorth (360°)3.5 mphOvercast
6:53 PM44.1 °F37.9 °F79 %30.06 in10.0 miCalmClear
7:53 PM42.1 °F39.0 °F89 %30.06 in10.0 miCalmClear
8:53 PM39.9 °F37.9 °F93 %30.07 in10.0 miCalmClear
9:53 PM39.0 °F37.0 °F93 %30.10 in10.0 miCalmClear
10:53 PM39.9 °F37.0 °F89 %30.10 in10.0 miCalmClear
11:53 PM41.0 °F37.0 °F86 %30.10 in10.0 miCalmClear
Hourly data recorded from KMLU, located miles away from Monroe, Louisiana







STORIES FROM OUR PARTNERS